Wetbulb
49.86 49.55 49.39 49.27 49.01 48.76 48.52 48.48 48.58 48.50 48.40 48.24 48.13 48.21 48.37 48.33 48.17 48.25 48.33 48.60 48.40 48.33 48.43 48.69 48.99 49.31 49.65 50.06 49.97 49.92 49.86 50.00 49.99 50.01 49.88 49.72 49.59 49.96 50.29 50.44 50.24 49.98 49.48 48.93 48.71 48.53 48.54 49.00 49.44 50.08 50.80 51.21 51.52 51.64 51.75 52.10 52.17 52.05 52.20 52.42 53.15 54.14 54.85 54.94 55.79 56.43 56.66 56.46 56.46
49.44 49.44 49.59 49.40 49.21 48.90 48.64 48.47 48.44 48.47 48.49 48.56 48.63 48.71 48.79 48.59 48.48 48.43 48.52 48.63 48.58 48.59 48.74 48.89 49.35 49.55 49.80 50.04 50.16 50.16 50.05 49.94 49.77 49.61 49.47 49.41 49.74 50.13 50.45 50.24 50.02 49.83 49.76 49.49 48.92 48.60 48.59 49.03 49.22 49.68 50.40 51.06 51.04 50.97 51.17 51.88 52.04 51.80 51.63 51.66 52.39 53.67 54.85 55.49 56.36 56.74 56.68 56.43 56.50
49.50 49.48 49.51 49.20 48.85 48.56 48.22 48.07 48.12 48.39 48.63 48.92 49.05 49.13 49.05 48.97 48.83 48.74 48.66 48.75 49.12 49.27 49.16 49.02 49.73 50.15 50.28 50.46 50.50 50.44 50.31 50.05 49.73 49.28 49.04 49.04 49.51 49.85 49.97 49.90 49.68 49.77 49.72 49.47 49.04 48.82 48.70 48.90 49.18 49.54 50.08 50.86 50.77 50.69 50.68 51.21 51.27 51.12 51.01 51.09 52.16 53.55 54.87 55.85 56.41 56.71 56.76 56.58 56.59
49.20 48.96 48.70 48.48 48.31 48.22 48.17 48.12 48.24 48.54 48.67 48.82 49.29 49.43 49.39 49.27 49.23 49.18 49.24 49.35 49.58 49.53 49.33 49.21 50.54 51.25 51.36 50.88 50.59 50.38 50.23 50.00 49.67 49.20 49.01 48.98 49.27 49.66 49.77 49.59 49.28 49.33 49.42 49.37 48.94 48.70 48.61 48.81 49.04 49.59 50.30 51.08 51.03 50.86 50.63 50.67 50.79 50.73 50.63 51.05 52.24 53.61 54.95 55.89 56.51 56.69 56.56 56.31 56.61
48.59 48.53 48.44 48.34 48.36 48.50 48.63 48.75 48.71 48.70 48.82 49.17 49.18 49.15 49.12 49.30 49.43 49.40 49.29 49.14 48.93 48.90 49.13 49.66 50.86 51.55 51.60 50.83 50.32 50.00 49.79 49.81 49.76 49.35 49.02 48.98 49.22 49.49 49.53 49.25 49.18 49.36 49.37 49.17 48.87 48.66 48.65 48.76 48.91 49.50 50.30 51.09 50.87 50.76 50.79 50.84 50.55 50.53 50.67 51.17 52.29 53.61 54.94 56.15 56.69 57.14 57.18 56.57 56.71
48.44 48.50 48.64 48.77 48.83 48.92 49.01 49.16 49.20 49.10 49.19 49.38 49.09 48.84 48.85 48.81 48.79 48.63 48.43 48.25 48.58 49.05 49.63 50.15 50.60 50.74 50.63 50.20 49.84 49.62 49.61 49.66 49.67 49.51 49.26 49.15 49.25 49.36 49.29 49.14 49.34 49.43 49.44 48.98 48.78 48.74 48.78 48.67 49.09 49.77 50.53 51.09 51.10 51.04 50.78 50.63 50.29 50.20 50.62 51.20 52.36 53.61 54.80 55.70 56.24 56.60 56.73 56.87 56.69
48.59 48.55 48.70 48.83 49.05 49.12 49.25 49.42 49.49 49.49 49.46 49.19 48.99 48.80 48.58 48.73 48.79 48.71 48.64 48.75 48.94 49.25 49.53 49.79 50.09 50.09 49.87 49.80 49.61 49.60 49.60 49.69 49.68 49.56 49.35 48.88 48.89 49.04 49.13 49.24 49.48 49.40 49.19 48.83 48.57 48.53 48.52 48.68 49.09 49.64 50.30 50.68 50.17 50.25 50.53 50.32 50.18 50.25 50.50 50.94 52.11 53.48 54.71 55.51 55.92 56.28 56.51 56.42 56.35
48.94 48.89 48.90 49.04 49.18 49.39 49.50 49.64 49.49 49.23 48.95 48.65 48.65 48.63 48.74 48.91 48.98 49.04 48.89 48.83 48.68 48.93 49.33 49.73 50.07 50.02 49.95 49.79 49.94 50.05 50.04 50.04 49.77 49.51 49.22 49.00 48.88 49.01 49.20 49.39 49.41 49.33 49.08 48.75 48.43 48.33 48.31 48.68 49.09 49.46 49.76 49.83 49.60 49.65 49.86 50.30 50.28 50.30 50.36 50.63 51.54 52.76 53.91 55.07 55.66 55.85 55.71 55.58 55.92
48.85 48.99 49.18 49.22 49.22 49.29 49.45 49.74 49.45 49.11 48.65 48.54 48.64 48.84 48.81 48.93 49.14 49.09 48.89 48.41 48.66 49.37 49.81 49.91 50.18 50.34 50.30 50.16 50.32 50.38 50.41 50.40 50.09 49.70 49.46 49.42 49.30 49.22 49.24 49.21 49.41 49.23 48.93 48.64 48.44 48.34 48.36 48.68 48.96 49.32 49.63 49.75 49.50 49.63 49.94 50.35 50.24 50.24 50.28 50.44 50.97 51.63 52.63 53.82 54.83 55.30 55.26 55.19 55.80
48.45 48.68 48.85 48.83 49.02 49.06 49.19 49.39 49.19 48.96 48.65 48.50 48.70 48.81 48.83 48.91 48.91 48.71 48.56 48.63 49.59 49.93 49.81 49.79 50.18 50.36 50.41 50.46 50.62 50.62 50.59 50.47 50.25 50.11 49.92 49.73 49.59 49.48 49.35 49.27 49.27 49.13 48.78 48.65 48.55 48.52 48.45 48.64 48.82 49.14 49.45 49.80 49.53 49.57 49.75 50.01 49.93 50.06 50.37 50.69 50.91 51.18 51.58 52.40 53.54 54.41 54.97 55.19 55.58
48.20 48.46 48.75 48.68 48.95 49.03 48.99 48.84 48.65 48.60 48.60 48.46 48.64 48.77 48.83 48.81 48.81 48.81 49.15 50.02 49.89 49.63 49.52 50.01 50.33 50.41 50.52 50.61 50.64 50.73 50.64 50.42 50.20 50.03 49.86 49.68 49.42 49.30 49.31 49.37 49.24 49.02 48.76 48.64 48.65 48.63 48.50 48.46 48.42 48.59 48.81 49.07 49.16 49.26 49.39 49.61 49.75 49.98 50.37 50.97 51.36 51.32 51.19 51.41 52.58 53.60 54.52 55.22 55.53
48.03 48.39 48.65 48.79 49.06 49.04 48.95 48.60 48.42 48.37 48.42 48.37 48.56 48.75 48.80 48.77 48.94 49.39 49.80 49.95 49.10 49.03 49.45 50.28 50.53 50.60 50.57 50.43 50.60 50.64 50.59 50.56 50.29 50.03 49.81 49.46 49.34 49.26 49.27 49.37 49.19 48.85 48.51 48.38 48.48 48.36 48.24 48.01 47.88 47.92 48.06 48.41 48.68 48.86 49.09 49.30 49.49 49.76 50.16 51.08 51.41 51.33 51.20 51.42 52.22 53.09 54.12 54.98 55.31
47.84 48.17 48.50 48.75 48.97 48.84 48.64 48.31 48.21 48.28 48.20 48.32 48.52 48.73 48.82 48.89 49.27 49.57 49.64 49.20 48.89 49.10 49.65 50.41 50.66 50.57 50.53 50.47 50.60 50.65 50.52 50.39 50.30 49.99 49.68 49.42 49.30 49.22 49.31 49.32 49.06 48.67 48.33 48.25 48.34 48.09 47.78 47.52 47.43 47.30 47.43 47.74 48.24 48.68 48.95 49.09 49.22 49.45 49.94 50.74 51.44 51.69 51.90 52.08 52.52 53.07 53.63 54.14 54.67
48.01 48.09 48.31 48.58 48.64 48.50 48.20 48.01 47.92 47.97 48.13 48.20 48.36 48.56 48.72 48.81 49.30 49.58 49.53 49.18 49.31 49.39 49.43 49.85 50.11 50.23 50.32 50.57 50.55 50.56 50.52 50.40 50.26 49.99 49.77 49.42 49.21 49.13 49.14 49.15 49.02 48.72 48.42 48.33 48.33 48.03 47.64 47.25 47.34 47.29 47.38 47.61 48.01 48.32 48.59 48.82 49.00 49.41 49.95 50.71 51.69 52.30 52.64 52.74 52.91 53.18 53.42 53.67 54.24
47.84 48.06 48.25 48.42 48.40 48.22 48.06 47.93 47.79 47.82 47.97 48.04 48.21 48.52 48.66 48.73 49.38 49.67 49.80 49.60 49.76 49.43 49.23 49.21 49.50 49.94 50.35 50.65 50.63 50.59 50.47 50.34 50.08 49.81 49.54 49.28 49.16 48.99 48.87 49.02 49.02 49.02 48.94 48.72 48.41 47.98 47.59 47.42 47.33 47.38 47.47 47.47 47.70 47.92 48.19 48.50 48.96 49.45 50.22 51.12 52.24 52.99 53.38 53.36 53.42 53.55 53.64 53.59 54.08
47.54 47.82 48.07 48.20 48.18 47.99 47.92 47.71 47.66 47.69 47.79 47.72 48.20 48.45 48.64 48.94 49.54 49.94 50.11 50.01 49.69 49.49 49.43 49.53 49.70 49.79 50.03 50.31 50.46 50.35 50.28 50.12 49.86 49.68 49.29 49.07 48.90 48.82 48.79 48.84 48.93 49.07 49.07 48.84 48.45 48.06 47.67 47.50 47.46 47.47 47.56 47.47 47.56 47.74 48.06 48.55 49.00 49.72 50.39 51.25 52.42 53.32 53.95 54.19 54.17 54.06 53.99 54.02 54.33
47.31 47.59 47.82 47.91 47.88 47.77 47.78 47.68 47.74 47.74 47.73 47.91 48.26 48.41 48.61 48.92 49.43 49.78 49.97 50.07 49.74 49.67 49.65 49.75 49.72 49.42 49.23 49.40 49.84 50.02 49.97 49.77 49.55 49.38 49.17 48.99 48.86 48.82 48.74 48.93 48.98 48.98 49.02 48.80 48.45 48.01 47.66 47.32 47.37 47.46 47.56 47.56 47.65 47.79 48.19 48.73 49.32 49.90 50.66 51.33 52.06 52.82 53.49 54.18 54.51 54.54 54.56 54.62 54.73
47.07 47.26 47.58 47.63 47.54 47.65 47.70 47.81 47.88 47.98 48.01 48.10 48.20 48.32 48.55 48.77 49.30 49.70 49.91 50.10 49.75 49.60 49.58 49.62 49.69 49.62 49.41 49.28 49.46 49.62 49.52 49.42 49.29 49.25 49.16 49.12 49.04 49.05 48.92 48.93 49.02 49.02 48.97 48.80 48.49 48.01 47.44 46.97 47.01 47.15 47.47 47.61 47.74 48.15 48.60 49.09 49.76 50.44 51.02 51.65 52.10 52.73 53.40 54.15 54.85 55.12 55.19 55.13 55.25
46.94 47.14 47.29 47.29 47.32 47.44 47.64 47.77 47.93 48.07 48.11 48.24 48.31 48.44 48.64 48.82 49.18 49.34 49.32 49.45 49.50 49.44 49.49 49.34 49.43 49.47 49.47 49.47 49.51 49.42 49.38 49.32 49.33 49.29 49.29 49.25 49.21 49.09 48.96 49.01 48.88 48.93 48.89 48.76 48.49 48.05 47.57 47.00 46.88 46.93 47.16 47.38 47.79 48.37 48.91 49.63 50.35 51.02 51.65 52.05 52.50 52.94 53.63 54.44 55.30 55.70 55.74 55.73 55.81
46.94 47.11 47.13 47.35 47.43 47.49 47.59 47.67 47.79 47.93 48.15 48.25 48.49 48.57 48.59 48.81 48.78 48.73 48.64 48.70 49.00 49.23 49.30 49.22 49.06 49.06 49.10 49.23 49.29 49.35 49.30 49.21 49.41 49.37 49.29 49.30 49.17 49.04 48.92 48.84 48.66 48.71 48.71 48.76 48.45 48.05 47.61 47.13 46.88 46.84 47.02 47.34 47.83 48.41 49.22 50.03 50.80 51.56 52.14 52.55 52.81 53.25 53.84 54.57 55.39 55.92 56.17 56.24 56.11
46.94 47.12 47.28 47.48 47.51 47.55 47.59 47.60 47.87 47.98 48.10 48.13 48.38 48.51 48.57 48.65 48.60 48.56 48.52 48.57 48.78 49.10 49.10 48.91 48.81 48.69 48.79 48.82 48.79 48.94 49.12 49.11 49.31 49.33 49.30 49.26 49.04 48.96 48.83 48.80 48.58 48.59 48.55 48.59 48.23 47.83 47.39 46.92 46.66 46.76 47.20 47.56 48.19 48.82 49.58 50.30 51.11 51.78 52.18 52.45 52.85 53.38 54.05 54.83 55.39 55.69 56.14 56.23 56.08
46.98 47.28 47.41 47.57 47.67 47.67 47.67 47.72 47.87 47.96 48.03 48.05 48.21 48.29 48.41 48.41 48.41 48.47 48.61 48.71 48.83 48.78 48.62 48.49 48.33 48.34 48.43 48.34 48.51 48.71 48.86 49.03 49.31 49.29 49.30 49.18 49.09 49.01 48.92 48.71 48.54 48.37 48.20 48.19 47.92 47.66 47.22 46.70 46.67 46.94 47.43 47.88 48.55 49.22 49.90 50.71 51.24 51.69 51.90 52.12 52.52 53.28 54.22 55.22 55.60 55.84 55.96 56.26 56.14
47.11 47.38 47.55 47.72 47.74 47.70 47.68 47.71 47.83 47.83 47.94 47.87 47.99 48.08 48.29 48.31 48.41 48.52 48.64 48.61 48.50 48.43 48.29 48.21 48.16 48.23 48.44 48.62 48.74 48.90 48.87 48.93 49.02 49.20 49.20 49.12 49.00 48.92 48.79 48.53 48.40 48.14 47.88 47.71 47.75 47.53 47.01 46.49 46.76 47.20 47.74 48.28 48.82 49.49 50.21 50.88 51.24 51.42 51.55 51.81 52.26 53.19 54.36 55.54 56.00 56.00 56.00 56.14 56.30
47.28 47.44 47.53 47.59 47.68 47.67 47.67 47.68 47.71 47.68 47.66 47.66 47.81 47.99 48.12 48.27 48.33 48.34 48.37 48.33 48.21 48.20 48.15 48.07 48.04 48.26 48.64 49.10 49.16 49.08 48.83 48.61 48.49 48.67 48.85 48.76 48.73 48.61 48.44 48.18 48.05 47.87 47.69 47.80 48.01 47.83 47.27 46.71 46.89 47.34 47.92 48.60 49.22 49.81 50.52 50.97 51.16 51.24 51.42 51.69 52.18 53.21 54.37 55.81 56.21 56.21 56.03 56.04 56.21
47.21 47.33 47.33 47.41 47.43 47.50 47.41 47.43 47.38 47.37 47.43 47.55 47.66 47.79 47.87 47.93 48.07 48.04 48.01 48.02 48.02 47.99 48.00 47.93 48.17 48.24 48.47 48.77 48.87 48.93 48.76 48.45 48.30 48.27 48.28 48.29 48.43 48.26 48.00 47.74 47.55 47.61 47.80 48.16 48.82 48.89 48.58 48.11 47.77 47.78 48.15 48.91 49.54 50.08 50.52 50.92 51.06 51.24 51.51 51.69 52.28 52.99 54.12 55.42 56.21 56.36 56.26 56.14 56.27
47.17 47.14 47.20 47.18 47.25 47.29 47.14 47.13 47.14 47.23 47.33 47.47 47.55 47.57 47.59 47.69 47.73 47.67 47.65 47.51 47.60 47.67 47.71 47.74 48.12 48.13 48.01 47.79 48.09 48.22 48.25 48.07 48.19 48.17 48.02 47.87 47.96 47.69 47.37 47.03 47.36 47.77 48.21 48.68 49.09 49.28 49.20 49.19 49.10 48.76 48.71 48.91 49.50 49.99 50.26 50.62 50.97 51.19 51.55 51.87 52.46 53.04 53.72 54.40 55.39 56.14 56.45 56.55 56.66
46.84 46.90 46.90 47.09 47.04 46.90 46.84 46.98 47.11 47.22 47.27 47.37 47.30 47.35 47.43 47.47 47.40 47.29 47.21 47.13 47.27 47.43 47.47 47.49 47.67 47.68 47.57 47.37 47.59 47.69 47.66 47.58 47.79 47.92 47.92 47.73 47.52 47.08 46.63 46.40 47.04 47.59 48.25 48.95 49.38 49.36 49.48 49.56 49.74 49.66 49.42 49.08 49.45 49.72 49.99 50.26 50.70 51.19 51.55 51.87 52.55 53.13 53.49 53.85 54.76 55.58 56.24 56.58 56.73
46.61 46.71 46.79 46.84 46.72 46.71 46.80 46.94 46.95 47.02 47.13 47.12 47.12 47.15 47.21 47.32 47.14 46.98 46.83 46.79 46.98 47.04 46.96 46.99 47.13 46.90 46.69 46.61 46.77 47.03 47.25 47.40 47.48 47.66 47.68 47.63 47.12 46.59 46.23 46.18 46.63 47.43 48.29 49.21 49.45 49.45 49.46 49.72 50.07 50.20 50.22 49.67 49.53 49.77 50.13 50.35 50.71 51.16 51.47 51.74 52.46 52.99 53.40 53.49 54.26 55.35 56.21 56.42 56.48
46.51 46.55 46.60 46.49 46.43 46.48 46.61 46.70 46.73 46.76 46.83 47.01 46.99 47.03 46.99 46.83 46.73 46.56 46.55 46.49 46.47 46.37 46.28 46.26 46.42 46.33 46.04 45.80 46.03 46.36 46.65 46.81 47.26 47.30 47.00 46.83 46.62 46.36 46.17 46.14 46.27 47.04 48.09 49.30 49.33 49.45 49.49 49.65 50.09 50.36 50.50 50.25 49.75 49.90 50.23 50.49 50.76 50.89 51.16 51.52 52.24 52.87 53.18 53.04 53.45 54.41 55.65 56.52 56.36
46.41 46.41 46.31 46.22 46.24 46.28 46.38 46.44 46.51 46.69 46.77 46.80 46.78 46.67 46.57 46.38 46.32 46.22 46.16 46.07 46.05 46.05 46.11 46.22 46.13 45.90 45.80 45.75 45.85 45.85 45.80 45.97 46.42 46.51 46.44 46.46 46.19 46.15 46.22 46.24 46.34 47.00 48.02 49.09 49.24 49.36 49.44 49.59 49.90 50.13 50.31 50.40 50.08 50.12 50.36 50.58 50.72 50.76 50.90 51.17 51.97 52.73 53.17 52.77 52.59 53.36 54.52 55.92 56.36
46.40 46.26 46.14 46.06 46.00 46.05 46.14 46.35 46.48 46.61 46.67 46.48 46.46 46.28 46.10 45.85 45.79 45.75 45.82 45.79 45.88 46.13 46.34 46.41 46.03 45.85 45.72 45.64 45.59 45.45 45.45 45.71 45.97 46.04 46.06 46.10 46.05 45.94 45.86 46.02 46.44 47.06 47.84 48.87 49.11 49.22 49.38 49.43 49.58 49.77 50.05 50.44 50.21 50.11 50.27 50.49 50.49 50.59 50.63 50.90 51.79 52.55 52.95 52.69 52.32 52.64 53.59 55.04 55.74
46.26 46.18 46.09 45.82 45.79 45.83 45.95 46.20 46.33 46.26 46.21 46.12 45.99 45.78 45.63 45.57 45.58 45.71 45.90 46.02 46.03 46.17 46.17 45.90 45.73 45.56 45.44 45.48 45.38 45.37 45.42 45.59 45.63 45.62 45.68 45.66 45.58 45.60 45.78 46.08 46.35 46.88 47.69 48.69 48.97 49.11 49.18 49.14 49.22 49.51 49.87 50.39 50.29 50.15 50.08 50.22 50.22 50.31 50.58 51.02 52.11 52.82 53.05 52.74 52.56 52.82 53.49 54.72 55.40
46.17 46.06 45.90 45.64 45.60 45.68 45.83 45.95 45.97 45.93 45.84 45.74 45.54 45.40 45.32 45.35 45.57 45.61 45.89 46.06 46.02 45.95 45.76 45.51 45.38 45.17 45.14 45.05 45.11 45.12 45.22 45.36 45.47 45.61 45.65 45.56 45.42 45.36 45.53 45.87 46.45 47.09 47.75 48.63 48.99 49.09 49.01 48.90 49.08 49.37 49.77 50.38 50.11 49.93 49.89 49.94 50.17 50.35 50.80 51.66 52.88 53.50 53.72 53.31 53.00 53.18 53.76 54.42 55.15
45.98 45.83 45.65 45.47 45.42 45.46 45.53 45.61 45.60 45.55 45.45 45.26 45.17 45.12 45.16 45.17 45.22 45.27 45.45 45.64 45.73 45.77 45.63 45.49 45.34 45.29 45.27 45.22 45.05 45.03 45.13 45.29 45.22 45.26 45.37 45.45 45.34 45.26 45.27 45.54 46.53 47.42 48.14 48.68 48.96 48.97 48.87 48.76 48.92 49.12 49.58 50.07 49.76 49.57 49.72 49.80 50.17 50.48 51.12 52.20 53.19 53.78 53.95 53.76 53.57 53.75 54.10 54.45 54.74
45.83 45.61 45.38 45.27 45.31 45.31 45.27 45.27 45.22 45.07 45.02 44.74 44.74 44.86 45.04 45.07 45.04 45.04 45.27 45.58 45.76 45.64 45.53 45.56 45.56 45.56 45.53 45.52 45.42 45.32 45.22 45.04 44.90 45.02 45.29 45.51 45.41 45.25 45.07 45.29 46.20 47.11 47.98 48.56 48.77 48.84 48.75 48.62 48.62 48.86 49.33 49.43 49.28 49.17 49.45 49.76 50.12 50.71 51.38 52.28 52.96 53.55 54.00 54.08 54.07 54.30 54.42 54.60 54.60
45.66 45.46 45.16 45.04 45.04 45.01 44.94 44.92 44.91 44.75 44.54 44.34 44.35 44.58 44.81 44.94 45.00 45.23 45.47 45.69 45.54 45.42 45.19 45.29 45.42 45.31 45.27 45.22 45.30 45.36 45.23 44.86 44.72 44.94 45.32 45.59 45.44 45.11 44.95 45.11 45.60 46.52 47.59 48.34 48.56 48.64 48.63 48.43 48.46 48.83 49.12 49.02 48.85 48.95 49.27 49.77 50.35 50.93 51.56 52.05 52.32 52.82 53.45 54.05 54.27 54.53 54.70 54.74 54.65
45.66 45.42 45.13 44.90 44.71 44.70 44.71 44.65 44.52 44.31 44.12 44.14 44.22 44.36 44.57 44.74 44.83 45.20 45.43 45.60 45.09 44.90 44.86 44.95 44.89 44.88 44.89 44.93 44.97 45.14 45.22 45.05 44.99 44.97 45.18 45.51 45.44 45.25 44.98 44.98 45.26 46.08 47.12 47.99 48.33 48.49 48.50 48.29 48.48 48.70 48.88 48.42 48.36 48.68 49.00 49.64 50.49 51.12 51.57 51.61 51.51 51.91 52.58 53.69 54.36 54.72 54.88 55.10 55.00
45.65 45.47 45.19 44.82 44.61 44.50 44.47 44.41 44.20 44.06 43.91 44.03 44.22 44.35 44.54 44.68 44.77 44.99 45.23 45.36 44.84 44.59 44.55 44.63 44.63 44.67 44.79 45.04 44.97 45.11 45.28 45.32 45.33 45.18 45.18 45.26 45.36 45.25 45.15 44.92 45.17 45.85 46.68 47.57 48.01 48.29 48.43 48.48 48.58 48.92 48.93 48.34 48.32 48.46 48.87 49.55 50.54 50.99 51.26 51.12 50.98 51.10 51.73 52.78 53.78 54.59 55.12 55.36 55.54
45.60 45.41 45.12 44.76 44.56 44.46 44.38 44.23 44.05 43.95 43.97 44.09 44.27 44.35 44.52 44.50 44.57 44.84 45.11 45.36 45.00 44.70 44.48 44.29 44.42 44.63 44.89 45.18 44.93 44.88 45.08 45.30 45.41 45.32 45.21 44.99 45.37 45.54 45.54 45.21 45.30 45.71 46.39 47.19 47.67 48.08 48.42 48.67 48.93 49.15 49.30 48.77 48.59 48.69 49.01 49.64 50.36 50.72 50.71 50.53 50.35 50.48 50.83 51.60 52.69 53.77 54.76 55.64 56.08
45.56 45.35 45.14 44.81 44.56 44.38 44.23 43.99 44.00 44.03 44.23 44.24 44.17 44.22 44.38 44.43 44.58 44.88 45.19 45.26 45.19 44.84 44.59 44.37 44.51 44.66 44.91 45.08 44.84 44.60 44.64 44.98 45.21 45.31 45.24 45.19 45.49 45.89 46.14 45.59 45.31 45.48 46.07 46.84 47.37 47.80 48.41 48.80 49.09 49.46 49.47 49.00 48.94 49.05 49.28 49.78 50.18 50.23 50.04 49.73 49.55 49.59 49.95 50.80 51.88 53.05 54.27 55.62 56.28
45.47 45.30 45.05 44.76 44.60 44.46 44.23 43.95 44.05 44.20 44.39 44.37 44.27 44.31 44.43 44.71 44.81 44.86 45.00 44.89 44.91 44.74 44.62 44.37 44.52 44.69 44.80 44.94 44.67 44.45 44.32 44.39 44.83 44.99 45.21 45.38 45.50 45.84 46.01 45.77 45.35 45.35 45.64 46.40 47.12 47.71 48.27 48.80 49.15 49.47 49.64 49.17 49.16 49.32 49.37 49.73 49.78 49.64 49.28 49.05 48.87 48.92 49.28 50.04 51.11 52.38 53.64 55.03 55.85
MSLP
1019.83 1019.71 1019.59 1019.47 1019.39 1019.27 1019.15 1018.98 1018.86 1018.74 1018.59 1018.42 1018.22 1018.07 1017.95 1017.74 1017.54 1017.39 1017.22 1017.03 1016.86 1016.62 1016.39 1016.22 1016.03 1015.86 1015.71 1015.54 1015.42 1015.27 1015.07 1014.91 1014.71 1014.51 1014.27 1014.03 1013.83 1013.62 1013.42 1013.27 1013.10 1012.91 1012.74 1012.62 1012.54 1012.42 1012.27 1012.07 1011.83 1011.42 1010.91 1010.42 1009.98 1009.59 1009.27 1009.03 1008.83 1008.59 1008.39 1008.18 1007.86 1007.42 1006.86 1006.30 1005.86 1005.54 1005.39 1005.39 1005.42
1019.62 1019.54 1019.42 1019.39 1019.27 1019.15 1018.98 1018.83 1018.66 1018.54 1018.42 1018.27 1018.15 1017.98 1017.83 1017.66 1017.47 1017.27 1017.07 1016.86 1016.71 1016.51 1016.27 1016.03 1015.91 1015.74 1015.54 1015.39 1015.27 1015.15 1014.95 1014.71 1014.47 1014.27 1013.98 1013.74 1013.54 1013.42 1013.22 1013.03 1012.86 1012.71 1012.59 1012.42 1012.30 1012.22 1012.07 1011.83 1011.51 1011.07 1010.59 1010.10 1009.66 1009.27 1008.91 1008.66 1008.51 1008.30 1008.10 1007.86 1007.54 1007.15 1006.66 1006.07 1005.54 1005.27 1005.15 1005.15 1005.15
1019.47 1019.39 1019.27 1019.15 1019.03 1018.86 1018.71 1018.54 1018.42 1018.34 1018.22 1018.10 1017.98 1017.86 1017.71 1017.54 1017.34 1017.15 1016.95 1016.71 1016.54 1016.34 1016.15 1015.91 1015.74 1015.59 1015.42 1015.27 1015.15 1014.98 1014.83 1014.54 1014.27 1013.98 1013.78 1013.54 1013.34 1013.15 1012.98 1012.83 1012.62 1012.47 1012.30 1012.22 1012.15 1011.98 1011.86 1011.54 1011.27 1010.83 1010.30 1009.78 1009.30 1008.91 1008.59 1008.27 1008.15 1008.03 1007.83 1007.47 1007.15 1006.71 1006.27 1005.78 1005.42 1005.15 1005.07 1005.03 1004.95
1019.27 1019.15 1019.03 1018.86 1018.78 1018.66 1018.54 1018.42 1018.27 1018.15 1018.07 1017.98 1017.86 1017.71 1017.59 1017.42 1017.22 1016.98 1016.78 1016.59 1016.34 1016.15 1015.98 1015.74 1015.59 1015.47 1015.34 1015.18 1014.98 1014.78 1014.59 1014.30 1014.07 1013.83 1013.54 1013.34 1013.15 1012.95 1012.74 1012.62 1012.42 1012.22 1012.07 1011.98 1011.86 1011.74 1011.59 1011.34 1010.98 1010.54 1009.98 1009.47 1009.03 1008.66 1008.34 1008.07 1007.91 1007.71 1007.47 1007.10 1006.78 1006.42 1006.03 1005.66 1005.30 1005.07 1004.95 1004.86 1004.83
1019.03 1018.98 1018.86 1018.74 1018.62 1018.54 1018.47 1018.39 1018.22 1018.07 1017.98 1017.86 1017.74 1017.59 1017.42 1017.27 1017.07 1016.86 1016.59 1016.39 1016.15 1015.91 1015.71 1015.59 1015.51 1015.39 1015.22 1015.03 1014.74 1014.51 1014.27 1014.10 1013.91 1013.71 1013.42 1013.22 1012.98 1012.78 1012.59 1012.42 1012.22 1012.03 1011.86 1011.71 1011.62 1011.51 1011.30 1011.07 1010.71 1010.22 1009.71 1009.27 1008.83 1008.42 1008.10 1007.86 1007.66 1007.42 1007.15 1006.83 1006.47 1006.15 1005.83 1005.47 1005.15 1004.86 1004.71 1004.66 1004.59
1018.86 1018.78 1018.71 1018.59 1018.51 1018.42 1018.39 1018.27 1018.15 1017.98 1017.91 1017.78 1017.62 1017.42 1017.18 1016.98 1016.78 1016.59 1016.34 1016.10 1015.91 1015.71 1015.54 1015.42 1015.30 1015.18 1014.98 1014.74 1014.54 1014.27 1014.07 1013.86 1013.71 1013.54 1013.30 1013.07 1012.83 1012.59 1012.34 1012.15 1011.98 1011.86 1011.71 1011.51 1011.34 1011.18 1010.98 1010.74 1010.34 1009.86 1009.39 1008.98 1008.59 1008.22 1007.95 1007.71 1007.42 1007.15 1006.86 1006.51 1006.15 1005.86 1005.59 1005.27 1004.98 1004.74 1004.59 1004.42 1004.27
1018.71 1018.62 1018.54 1018.47 1018.42 1018.30 1018.22 1018.15 1018.03 1017.91 1017.78 1017.62 1017.42 1017.18 1016.95 1016.74 1016.59 1016.39 1016.15 1015.95 1015.71 1015.54 1015.39 1015.27 1015.15 1014.98 1014.78 1014.54 1014.30 1014.15 1013.91 1013.71 1013.51 1013.30 1013.15 1012.86 1012.59 1012.34 1012.18 1011.98 1011.78 1011.59 1011.42 1011.27 1011.10 1010.91 1010.71 1010.47 1010.03 1009.54 1009.07 1008.71 1008.34 1007.98 1007.71 1007.54 1007.27 1006.98 1006.66 1006.27 1005.95 1005.62 1005.34 1005.07 1004.83 1004.59 1004.42 1004.22 1004.03
1018.59 1018.51 1018.42 1018.30 1018.27 1018.15 1018.07 1017.95 1017.86 1017.71 1017.54 1017.42 1017.15 1016.95 1016.74 1016.54 1016.39 1016.18 1015.98 1015.78 1015.54 1015.39 1015.27 1015.15 1014.98 1014.83 1014.62 1014.39 1014.18 1013.98 1013.78 1013.54 1013.34 1013.15 1012.86 1012.62 1012.39 1012.18 1011.98 1011.83 1011.59 1011.39 1011.15 1010.98 1010.86 1010.66 1010.42 1010.15 1009.74 1009.27 1008.86 1008.47 1008.15 1007.78 1007.54 1007.34 1007.15 1006.86 1006.51 1006.15 1005.83 1005.54 1005.27 1004.98 1004.71 1004.47 1004.27 1004.10 1003.86
1018.42 1018.30 1018.27 1018.15 1018.07 1017.95 1017.83 1017.74 1017.66 1017.51 1017.34 1017.15 1016.95 1016.74 1016.59 1016.39 1016.18 1015.98 1015.83 1015.59 1015.39 1015.27 1015.15 1014.98 1014.83 1014.62 1014.42 1014.22 1013.98 1013.83 1013.59 1013.39 1013.15 1012.91 1012.66 1012.47 1012.27 1012.03 1011.83 1011.59 1011.34 1011.10 1010.86 1010.71 1010.59 1010.39 1010.15 1009.86 1009.42 1008.98 1008.62 1008.27 1007.91 1007.62 1007.39 1007.15 1006.91 1006.59 1006.22 1005.86 1005.54 1005.27 1004.98 1004.74 1004.51 1004.27 1004.03 1003.83 1003.54
1018.18 1018.10 1017.98 1017.91 1017.83 1017.71 1017.62 1017.54 1017.42 1017.30 1017.15 1016.91 1016.71 1016.51 1016.30 1016.15 1015.98 1015.78 1015.59 1015.42 1015.27 1015.15 1014.98 1014.83 1014.66 1014.42 1014.22 1014.03 1013.83 1013.59 1013.42 1013.18 1012.95 1012.71 1012.42 1012.22 1012.03 1011.83 1011.59 1011.34 1011.10 1010.86 1010.62 1010.42 1010.27 1010.10 1009.86 1009.54 1009.10 1008.71 1008.39 1008.03 1007.74 1007.42 1007.18 1006.95 1006.59 1006.27 1005.86 1005.54 1005.18 1004.91 1004.66 1004.42 1004.22 1003.98 1003.74 1003.47 1003.18
1017.98 1017.91 1017.83 1017.71 1017.62 1017.54 1017.47 1017.34 1017.22 1017.07 1016.91 1016.71 1016.47 1016.27 1016.10 1015.91 1015.74 1015.59 1015.42 1015.34 1015.15 1014.98 1014.74 1014.59 1014.42 1014.27 1014.03 1013.86 1013.62 1013.39 1013.18 1012.95 1012.71 1012.47 1012.18 1011.98 1011.78 1011.54 1011.39 1011.15 1010.91 1010.66 1010.42 1010.18 1010.03 1009.83 1009.54 1009.22 1008.86 1008.47 1008.15 1007.86 1007.54 1007.22 1006.86 1006.59 1006.27 1005.86 1005.51 1005.15 1004.83 1004.54 1004.27 1004.03 1003.83 1003.66 1003.47 1003.18 1002.86
1017.78 1017.71 1017.62 1017.54 1017.47 1017.39 1017.27 1017.15 1016.98 1016.83 1016.62 1016.42 1016.22 1016.03 1015.86 1015.71 1015.51 1015.39 1015.27 1015.15 1014.95 1014.74 1014.59 1014.42 1014.27 1014.10 1013.86 1013.66 1013.39 1013.15 1012.95 1012.71 1012.47 1012.27 1011.98 1011.71 1011.51 1011.27 1011.10 1010.86 1010.62 1010.42 1010.18 1009.98 1009.83 1009.59 1009.34 1008.98 1008.62 1008.27 1007.86 1007.54 1007.27 1006.98 1006.59 1006.22 1005.91 1005.51 1005.15 1004.74 1004.42 1004.15 1003.86 1003.54 1003.30 1003.18 1003.07 1002.86 1002.59
1017.54 1017.51 1017.42 1017.34 1017.27 1017.18 1017.07 1016.91 1016.74 1016.59 1016.42 1016.15 1015.98 1015.86 1015.66 1015.47 1015.30 1015.22 1015.10 1014.95 1014.74 1014.59 1014.42 1014.27 1014.15 1013.91 1013.71 1013.42 1013.15 1012.95 1012.71 1012.47 1012.22 1011.98 1011.71 1011.47 1011.27 1010.98 1010.78 1010.59 1010.34 1010.15 1009.95 1009.74 1009.59 1009.39 1009.15 1008.78 1008.42 1008.03 1007.66 1007.27 1006.95 1006.66 1006.30 1005.98 1005.66 1005.27 1004.78 1004.34 1003.98 1003.71 1003.39 1003.07 1002.86 1002.71 1002.62 1002.54 1002.34
1017.39 1017.30 1017.27 1017.15 1017.07 1016.98 1016.86 1016.71 1016.54 1016.34 1016.15 1015.95 1015.74 1015.54 1015.42 1015.27 1015.15 1015.03 1014.91 1014.78 1014.59 1014.42 1014.22 1014.07 1013.86 1013.71 1013.47 1013.22 1012.98 1012.74 1012.51 1012.27 1011.98 1011.71 1011.47 1011.18 1010.98 1010.74 1010.51 1010.27 1010.10 1009.86 1009.66 1009.47 1009.27 1009.10 1008.86 1008.59 1008.22 1007.86 1007.42 1006.98 1006.62 1006.30 1006.03 1005.74 1005.42 1005.03 1004.59 1004.10 1003.62 1003.27 1002.95 1002.62 1002.42 1002.27 1002.22 1002.15 1001.98
1017.18 1017.15 1017.03 1016.95 1016.86 1016.78 1016.62 1016.47 1016.30 1016.10 1015.86 1015.66 1015.51 1015.34 1015.22 1015.07 1014.98 1014.86 1014.74 1014.62 1014.42 1014.27 1014.03 1013.86 1013.62 1013.47 1013.27 1013.03 1012.78 1012.54 1012.27 1012.03 1011.78 1011.51 1011.22 1010.91 1010.66 1010.42 1010.27 1009.98 1009.78 1009.54 1009.39 1009.18 1008.98 1008.83 1008.62 1008.39 1008.03 1007.66 1007.27 1006.83 1006.42 1006.10 1005.74 1005.42 1005.10 1004.74 1004.34 1003.86 1003.42 1002.95 1002.54 1002.22 1002.03 1001.86 1001.78 1001.71 1001.59
1016.98 1016.91 1016.83 1016.74 1016.66 1016.54 1016.42 1016.27 1016.03 1015.83 1015.62 1015.42 1015.27 1015.18 1015.07 1014.95 1014.83 1014.71 1014.59 1014.42 1014.27 1014.07 1013.86 1013.71 1013.47 1013.27 1012.98 1012.78 1012.59 1012.30 1012.07 1011.78 1011.54 1011.27 1010.98 1010.66 1010.42 1010.18 1009.98 1009.74 1009.54 1009.30 1009.10 1008.91 1008.66 1008.47 1008.30 1008.10 1007.86 1007.47 1007.07 1006.66 1006.27 1005.86 1005.54 1005.15 1004.78 1004.42 1003.98 1003.62 1003.18 1002.71 1002.27 1001.86 1001.59 1001.42 1001.30 1001.27 1001.22
1016.78 1016.71 1016.59 1016.51 1016.42 1016.27 1016.15 1015.98 1015.83 1015.59 1015.42 1015.27 1015.15 1014.98 1014.86 1014.74 1014.62 1014.51 1014.39 1014.27 1014.07 1013.86 1013.66 1013.47 1013.27 1013.03 1012.74 1012.51 1012.27 1012.07 1011.86 1011.59 1011.30 1011.03 1010.74 1010.47 1010.18 1009.98 1009.71 1009.51 1009.27 1009.07 1008.83 1008.62 1008.39 1008.15 1007.98 1007.78 1007.54 1007.27 1006.91 1006.51 1006.15 1005.71 1005.27 1004.86 1004.42 1003.98 1003.62 1003.22 1002.86 1002.42 1001.98 1001.54 1001.18 1000.98 1000.86 1000.83 1000.74
1016.59 1016.47 1016.39 1016.27 1016.15 1016.03 1015.86 1015.71 1015.59 1015.42 1015.27 1015.15 1014.98 1014.86 1014.71 1014.54 1014.42 1014.30 1014.15 1014.03 1013.86 1013.66 1013.42 1013.22 1013.03 1012.83 1012.59 1012.30 1012.07 1011.86 1011.62 1011.39 1011.10 1010.83 1010.54 1010.27 1009.98 1009.74 1009.51 1009.27 1009.03 1008.83 1008.59 1008.39 1008.15 1007.91 1007.66 1007.47 1007.27 1006.98 1006.66 1006.30 1005.91 1005.51 1005.03 1004.59 1004.10 1003.66 1003.22 1002.78 1002.39 1001.98 1001.62 1001.22 1000.86 1000.59 1000.47 1000.39 1000.34
1016.34 1016.27 1016.15 1016.07 1015.95 1015.78 1015.62 1015.51 1015.34 1015.22 1015.07 1014.95 1014.83 1014.66 1014.51 1014.34 1014.22 1014.07 1013.86 1013.71 1013.54 1013.42 1013.18 1012.98 1012.74 1012.59 1012.34 1012.10 1011.86 1011.62 1011.42 1011.18 1010.86 1010.59 1010.30 1010.07 1009.83 1009.54 1009.27 1009.03 1008.83 1008.59 1008.39 1008.15 1007.91 1007.66 1007.42 1007.15 1006.95 1006.71 1006.42 1006.03 1005.62 1005.15 1004.71 1004.22 1003.78 1003.27 1002.83 1002.39 1001.95 1001.54 1001.18 1000.86 1000.54 1000.30 1000.15 1000.10 1000.03
1016.15 1016.07 1015.95 1015.83 1015.71 1015.54 1015.39 1015.27 1015.15 1014.98 1014.86 1014.71 1014.59 1014.42 1014.27 1014.10 1013.98 1013.83 1013.62 1013.42 1013.27 1013.15 1012.98 1012.74 1012.54 1012.27 1012.07 1011.86 1011.62 1011.42 1011.15 1010.95 1010.66 1010.39 1010.10 1009.86 1009.59 1009.34 1009.10 1008.86 1008.59 1008.39 1008.18 1007.98 1007.71 1007.42 1007.15 1006.86 1006.66 1006.42 1006.15 1005.74 1005.27 1004.83 1004.34 1003.86 1003.39 1002.91 1002.42 1001.98 1001.54 1001.15 1000.78 1000.51 1000.27 1000.03 999.86 999.83 999.78
1015.95 1015.86 1015.71 1015.54 1015.42 1015.30 1015.18 1015.07 1014.95 1014.78 1014.62 1014.51 1014.39 1014.22 1014.03 1013.86 1013.71 1013.54 1013.39 1013.15 1012.98 1012.86 1012.71 1012.51 1012.27 1012.07 1011.83 1011.54 1011.39 1011.15 1010.91 1010.71 1010.42 1010.18 1009.91 1009.62 1009.39 1009.15 1008.91 1008.71 1008.42 1008.22 1007.98 1007.74 1007.47 1007.18 1006.95 1006.71 1006.47 1006.18 1005.86 1005.42 1004.98 1004.51 1003.98 1003.51 1003.03 1002.54 1002.10 1001.66 1001.27 1000.83 1000.42 1000.15 999.91 999.74 999.62 999.54 999.51
1015.74 1015.59 1015.47 1015.39 1015.27 1015.15 1014.98 1014.86 1014.71 1014.59 1014.42 1014.27 1014.10 1013.95 1013.78 1013.59 1013.42 1013.27 1013.15 1012.95 1012.78 1012.62 1012.42 1012.22 1011.98 1011.83 1011.54 1011.34 1011.15 1010.91 1010.71 1010.47 1010.27 1009.98 1009.71 1009.42 1009.15 1008.95 1008.71 1008.54 1008.30 1008.07 1007.83 1007.54 1007.22 1006.98 1006.74 1006.51 1006.27 1005.98 1005.62 1005.18 1004.71 1004.22 1003.71 1003.27 1002.78 1002.27 1001.83 1001.34 1000.91 1000.51 1000.15 999.83 999.59 999.42 999.34 999.27 999.22
1015.54 1015.42 1015.30 1015.18 1015.07 1014.91 1014.78 1014.66 1014.51 1014.39 1014.22 1013.98 1013.86 1013.71 1013.54 1013.34 1013.18 1013.03 1012.86 1012.71 1012.59 1012.39 1012.15 1011.98 1011.74 1011.54 1011.34 1011.15 1010.95 1010.71 1010.51 1010.27 1009.98 1009.71 1009.47 1009.18 1008.98 1008.74 1008.54 1008.34 1008.15 1007.86 1007.59 1007.30 1007.10 1006.86 1006.62 1006.34 1006.07 1005.71 1005.34 1004.95 1004.42 1003.91 1003.42 1002.98 1002.54 1002.10 1001.66 1001.15 1000.66 1000.18 999.78 999.42 999.22 999.10 999.03 998.98 998.98
1015.30 1015.18 1015.10 1014.98 1014.86 1014.71 1014.59 1014.42 1014.27 1014.15 1013.95 1013.74 1013.59 1013.42 1013.27 1013.15 1012.98 1012.83 1012.62 1012.42 1012.27 1012.10 1011.91 1011.71 1011.54 1011.30 1011.10 1010.95 1010.74 1010.51 1010.27 1009.98 1009.71 1009.42 1009.15 1008.95 1008.71 1008.54 1008.34 1008.15 1007.95 1007.62 1007.34 1007.15 1006.98 1006.74 1006.51 1006.27 1005.91 1005.51 1005.07 1004.62 1004.15 1003.62 1003.15 1002.71 1002.30 1001.95 1001.54 1001.03 1000.54 999.98 999.54 999.15 998.91 998.78 998.74 998.74 998.71
1015.15 1015.03 1014.86 1014.74 1014.62 1014.47 1014.30 1014.18 1014.03 1013.86 1013.71 1013.51 1013.34 1013.18 1013.07 1012.86 1012.71 1012.59 1012.39 1012.18 1012.03 1011.86 1011.66 1011.47 1011.27 1011.07 1010.86 1010.71 1010.47 1010.22 1009.98 1009.71 1009.42 1009.15 1008.91 1008.66 1008.47 1008.27 1008.15 1007.95 1007.71 1007.42 1007.18 1006.98 1006.74 1006.47 1006.27 1006.07 1005.83 1005.42 1004.98 1004.42 1003.95 1003.42 1002.91 1002.47 1002.10 1001.71 1001.39 1000.95 1000.42 999.95 999.42 998.98 998.71 998.54 998.47 998.47 998.47
1014.95 1014.83 1014.66 1014.51 1014.39 1014.27 1014.10 1013.98 1013.78 1013.59 1013.47 1013.27 1013.15 1012.98 1012.83 1012.66 1012.51 1012.30 1012.15 1011.95 1011.74 1011.54 1011.39 1011.18 1010.98 1010.83 1010.59 1010.39 1010.15 1009.91 1009.71 1009.47 1009.22 1008.98 1008.71 1008.42 1008.27 1008.03 1007.86 1007.71 1007.42 1007.22 1006.98 1006.74 1006.42 1006.15 1005.91 1005.71 1005.54 1005.22 1004.86 1004.39 1003.86 1003.30 1002.78 1002.30 1001.91 1001.51 1001.15 1000.78 1000.30 999.86 999.39 998.98 998.62 998.30 998.15 998.10 998.10
1014.71 1014.59 1014.42 1014.27 1014.15 1013.98 1013.86 1013.71 1013.54 1013.42 1013.22 1013.07 1012.91 1012.74 1012.59 1012.42 1012.27 1012.07 1011.86 1011.66 1011.47 1011.27 1011.10 1010.91 1010.71 1010.51 1010.27 1010.03 1009.83 1009.59 1009.42 1009.18 1008.98 1008.71 1008.51 1008.27 1008.03 1007.86 1007.62 1007.39 1007.15 1006.95 1006.71 1006.42 1006.10 1005.83 1005.59 1005.39 1005.15 1004.86 1004.59 1004.22 1003.74 1003.22 1002.71 1002.18 1001.71 1001.27 1000.86 1000.47 1000.07 999.66 999.27 998.86 998.54 998.22 997.98 997.74 997.71
1014.47 1014.34 1014.18 1014.07 1013.91 1013.74 1013.59 1013.47 1013.30 1013.18 1013.03 1012.86 1012.71 1012.54 1012.34 1012.15 1012.03 1011.86 1011.62 1011.42 1011.22 1010.98 1010.83 1010.62 1010.42 1010.18 1009.98 1009.74 1009.54 1009.34 1009.15 1008.95 1008.71 1008.47 1008.27 1008.07 1007.86 1007.62 1007.42 1007.15 1006.91 1006.62 1006.34 1006.10 1005.83 1005.54 1005.34 1005.15 1004.86 1004.54 1004.27 1003.98 1003.54 1003.07 1002.51 1001.98 1001.47 1001.03 1000.62 1000.22 999.78 999.39 999.03 998.74 998.47 998.15 997.83 997.54 997.42
1014.27 1014.15 1013.98 1013.86 1013.71 1013.54 1013.42 1013.27 1013.10 1012.98 1012.83 1012.62 1012.42 1012.27 1012.15 1011.98 1011.78 1011.59 1011.39 1011.18 1010.98 1010.74 1010.51 1010.30 1010.15 1009.95 1009.71 1009.51 1009.30 1009.10 1008.86 1008.66 1008.42 1008.27 1008.07 1007.86 1007.66 1007.42 1007.18 1006.95 1006.66 1006.34 1006.10 1005.86 1005.62 1005.39 1005.15 1004.91 1004.62 1004.30 1003.98 1003.71 1003.34 1002.86 1002.27 1001.71 1001.22 1000.83 1000.42 999.98 999.54 999.15 998.78 998.59 998.39 998.10 997.71 997.34 997.15
1014.07 1013.91 1013.78 1013.62 1013.47 1013.30 1013.18 1013.03 1012.86 1012.71 1012.59 1012.42 1012.27 1012.10 1011.91 1011.71 1011.54 1011.34 1011.15 1010.91 1010.71 1010.47 1010.27 1010.07 1009.86 1009.71 1009.51 1009.27 1009.10 1008.86 1008.59 1008.34 1008.18 1008.03 1007.91 1007.71 1007.47 1007.22 1006.98 1006.71 1006.42 1006.15 1005.91 1005.71 1005.47 1005.22 1004.95 1004.66 1004.42 1004.15 1003.83 1003.42 1003.10 1002.62 1002.07 1001.51 1001.07 1000.62 1000.18 999.74 999.34 998.91 998.59 998.34 998.27 998.03 997.71 997.27 996.98
1013.86 1013.71 1013.54 1013.42 1013.27 1013.15 1012.98 1012.83 1012.71 1012.54 1012.39 1012.22 1012.07 1011.86 1011.71 1011.51 1011.27 1011.07 1010.86 1010.66 1010.42 1010.22 1010.03 1009.86 1009.71 1009.47 1009.27 1009.07 1008.86 1008.59 1008.34 1008.15 1007.98 1007.86 1007.71 1007.54 1007.27 1006.98 1006.71 1006.42 1006.22 1005.98 1005.74 1005.51 1005.27 1004.98 1004.71 1004.47 1004.27 1003.98 1003.62 1003.27 1002.86 1002.39 1001.91 1001.39 1000.95 1000.47 999.98 999.54 999.07 998.66 998.34 998.18 998.10 997.98 997.66 997.22 996.95
1013.66 1013.54 1013.39 1013.22 1013.03 1012.91 1012.74 1012.62 1012.47 1012.34 1012.18 1012.03 1011.86 1011.71 1011.51 1011.27 1011.07 1010.86 1010.66 1010.47 1010.27 1010.03 1009.83 1009.62 1009.42 1009.22 1008.98 1008.78 1008.59 1008.34 1008.15 1007.98 1007.83 1007.71 1007.54 1007.34 1007.10 1006.78 1006.51 1006.27 1006.03 1005.83 1005.59 1005.34 1005.10 1004.83 1004.54 1004.30 1004.10 1003.86 1003.51 1003.10 1002.71 1002.27 1001.78 1001.30 1000.86 1000.30 999.78 999.22 998.71 998.34 998.15 998.03 997.95 997.83 997.54 997.15 996.95
1013.47 1013.34 1013.18 1013.03 1012.86 1012.71 1012.59 1012.42 1012.30 1012.15 1011.98 1011.86 1011.66 1011.51 1011.27 1011.07 1010.86 1010.66 1010.47 1010.27 1010.07 1009.86 1009.59 1009.42 1009.22 1008.98 1008.74 1008.54 1008.30 1008.10 1007.95 1007.78 1007.66 1007.54 1007.34 1007.15 1006.86 1006.59 1006.30 1006.07 1005.86 1005.71 1005.42 1005.18 1004.91 1004.59 1004.30 1004.15 1003.98 1003.71 1003.39 1002.95 1002.54 1002.15 1001.66 1001.22 1000.74 1000.18 999.59 998.98 998.47 998.10 997.95 997.86 997.86 997.71 997.42 997.15 996.98
1013.27 1013.15 1012.98 1012.86 1012.71 1012.54 1012.39 1012.27 1012.15 1011.98 1011.83 1011.62 1011.47 1011.27 1011.10 1010.86 1010.66 1010.42 1010.22 1010.03 1009.86 1009.62 1009.42 1009.22 1009.03 1008.83 1008.59 1008.39 1008.15 1007.95 1007.74 1007.59 1007.42 1007.27 1007.15 1006.91 1006.66 1006.39 1006.15 1005.95 1005.74 1005.54 1005.27 1004.98 1004.71 1004.42 1004.15 1003.95 1003.78 1003.54 1003.18 1002.83 1002.42 1002.03 1001.59 1001.15 1000.62 1000.15 999.54 998.98 998.51 998.15 997.91 997.83 997.71 997.54 997.34 997.15 996.95
1013.15 1012.98 1012.86 1012.66 1012.54 1012.39 1012.27 1012.10 1011.98 1011.83 1011.62 1011.42 1011.27 1011.07 1010.86 1010.66 1010.42 1010.27 1010.03 1009.83 1009.62 1009.42 1009.22 1009.03 1008.86 1008.62 1008.42 1008.22 1007.98 1007.78 1007.62 1007.42 1007.27 1007.10 1006.91 1006.71 1006.47 1006.22 1005.98 1005.74 1005.54 1005.30 1005.07 1004.83 1004.54 1004.27 1004.03 1003.83 1003.59 1003.30 1003.03 1002.71 1002.39 1001.98 1001.54 1001.03 1000.54 1000.03 999.54 999.07 998.62 998.27 997.98 997.71 997.54 997.34 997.18 996.98 996.83
1012.98 1012.86 1012.71 1012.54 1012.39 1012.22 1012.10 1011.95 1011.78 1011.59 1011.42 1011.27 1011.03 1010.86 1010.62 1010.47 1010.27 1010.03 1009.86 1009.66 1009.42 1009.22 1008.98 1008.83 1008.59 1008.39 1008.15 1007.98 1007.78 1007.62 1007.47 1007.27 1007.07 1006.86 1006.71 1006.51 1006.27 1006.07 1005.78 1005.54 1005.27 1005.07 1004.86 1004.66 1004.42 1004.15 1003.91 1003.66 1003.42 1003.18 1002.91 1002.62 1002.27 1001.86 1001.42 1000.98 1000.42 999.95 999.51 999.15 998.78 998.42 998.03 997.71 997.39 997.15 996.98 996.83 996.62
1012.86 1012.71 1012.59 1012.39 1012.27 1012.10 1011.95 1011.83 1011.62 1011.42 1011.27 1011.03 1010.86 1010.62 1010.42 1010.27 1010.03 1009.86 1009.66 1009.51 1009.27 1008.98 1008.74 1008.59 1008.39 1008.18 1007.98 1007.78 1007.59 1007.42 1007.27 1007.10 1006.86 1006.71 1006.47 1006.27 1006.15 1005.91 1005.62 1005.39 1005.15 1004.91 1004.71 1004.54 1004.27 1004.03 1003.74 1003.51 1003.27 1003.07 1002.86 1002.54 1002.18 1001.83 1001.39 1000.86 1000.34 999.86 999.47 999.18 998.86 998.54 998.15 997.74 997.39 997.07 996.78 996.59 996.39
1012.71 1012.59 1012.42 1012.30 1012.15 1011.95 1011.78 1011.66 1011.47 1011.27 1011.07 1010.86 1010.66 1010.47 1010.27 1010.10 1009.86 1009.62 1009.47 1009.30 1009.10 1008.83 1008.54 1008.34 1008.15 1007.98 1007.78 1007.62 1007.42 1007.27 1007.10 1006.95 1006.74 1006.54 1006.30 1006.07 1005.95 1005.74 1005.51 1005.18 1004.95 1004.74 1004.59 1004.39 1004.15 1003.91 1003.62 1003.39 1003.15 1002.98 1002.71 1002.47 1002.15 1001.71 1001.27 1000.74 1000.27 999.86 999.54 999.27 998.98 998.66 998.27 997.86 997.47 997.03 996.66 996.34 996.10
1012.59 1012.47 1012.30 1012.18 1011.98 1011.83 1011.66 1011.51 1011.30 1011.10 1010.91 1010.71 1010.51 1010.27 1010.10 1009.91 1009.71 1009.47 1009.27 1009.15 1008.95 1008.71 1008.42 1008.15 1007.91 1007.74 1007.59 1007.42 1007.27 1007.03 1006.86 1006.71 1006.59 1006.39 1006.15 1005.95 1005.74 1005.54 1005.34 1005.07 1004.83 1004.59 1004.42 1004.27 1003.98 1003.78 1003.54 1003.27 1003.03 1002.83 1002.59 1002.34 1002.03 1001.62 1001.15 1000.66 1000.15 999.83 999.54 999.34 999.03 998.71 998.34 997.98 997.54 997.15 996.62 996.22 995.91
1012.42 1012.30 1012.18 1011.98 1011.86 1011.71 1011.51 1011.30 1011.15 1010.95 1010.74 1010.59 1010.34 1010.10 1009.91 1009.71 1009.51 1009.27 1009.10 1008.91 1008.71 1008.51 1008.22 1007.95 1007.71 1007.54 1007.42 1007.27 1007.03 1006.83 1006.62 1006.47 1006.30 1006.18 1005.98 1005.78 1005.59 1005.39 1005.18 1004.98 1004.71 1004.47 1004.27 1004.07 1003.86 1003.62 1003.42 1003.18 1002.95 1002.66 1002.42 1002.22 1001.95 1001.54 1001.07 1000.59 1000.15 999.78 999.54 999.39 999.10 998.74 998.39 997.98 997.62 997.18 996.71 996.22 995.91
1012.27 1012.15 1011.98 1011.86 1011.71 1011.54 1011.30 1011.15 1010.91 1010.74 1010.59 1010.42 1010.22 1009.98 1009.74 1009.54 1009.30 1009.10 1008.86 1008.71 1008.51 1008.27 1008.07 1007.78 1007.54 1007.42 1007.27 1007.10 1006.91 1006.66 1006.42 1006.22 1006.07 1005.95 1005.78 1005.62 1005.42 1005.18 1004.98 1004.83 1004.59 1004.30 1004.10 1003.91 1003.71 1003.51 1003.27 1003.03 1002.78 1002.54 1002.27 1002.10 1001.78 1001.42 1000.95 1000.47 1000.07 999.74 999.54 999.34 999.15 998.86 998.42 998.03 997.59 997.18 996.78 996.30 995.98
Wind_Speed
9 8 8 7 7 7 7 7 8 8 8 8 9 9 9 9 10 10 10 10 10 10 10 10 11 12 14 17 19 20 20 20 21 22 22 23 22 22 21 21 20 19 19 19 19 18 16 16 15 14 12 11 12 13 13 11 11 12 12 13 14 16 18 19 17 16 14 13 10
9 9 9 9 8 8 8 7 8 8 8 8 8 9 9 9 10 10 10 11 10 10 11 11 12 14 16 19 19 19 19 20 21 22 22 22 22 22 21 20 20 19 19 19 19 16 15 16 15 14 12 11 12 13 13 12 11 12 14 16 15 14 15 16 15 14 13 12 10
9 9 9 9 9 9 8 8 8 9 10 10 9 9 9 9 9 10 10 11 12 12 11 11 12 14 17 19 18 18 18 19 21 22 21 21 21 21 21 20 20 20 19 19 18 16 15 17 15 14 13 12 13 13 13 14 14 14 15 16 14 12 11 11 12 11 10 8 9
10 10 10 10 11 11 11 9 10 11 11 10 10 10 10 9 9 9 10 12 13 12 12 12 12 12 14 16 18 19 19 20 22 22 21 21 21 21 22 21 21 20 19 19 18 18 18 19 15 13 13 15 16 15 14 13 14 14 13 13 12 12 11 11 10 9 8 8 9
10 10 10 10 12 12 11 10 12 12 11 9 9 9 9 9 9 10 11 11 11 12 13 15 13 12 13 16 19 21 21 21 21 21 20 20 21 21 21 21 21 20 19 19 19 19 20 20 15 13 13 14 13 13 13 15 15 15 13 11 11 11 11 11 10 9 9 9 8
10 10 11 11 12 12 11 10 12 12 11 10 11 11 11 10 10 11 12 12 13 15 16 17 15 14 15 18 19 20 20 20 19 19 20 21 20 20 21 21 21 20 19 19 20 20 20 19 14 12 12 12 12 14 15 17 15 14 13 12 11 11 10 11 10 9 10 11 10
10 11 11 11 12 12 11 11 12 12 12 11 13 14 14 13 14 15 16 15 14 14 14 13 14 15 16 18 18 19 19 19 19 20 21 20 20 20 20 20 20 20 20 19 20 19 18 17 14 12 11 11 11 13 15 15 14 14 14 14 12 11 11 12 10 10 11 14 14
10 11 11 12 12 12 13 13 12 12 12 11 12 15 16 17 17 17 17 16 14 14 13 12 14 16 18 18 18 18 19 19 19 20 20 20 20 21 20 20 20 20 20 19 19 18 18 16 13 12 11 11 11 12 14 16 16 16 16 16 13 12 11 11 10 11 13 17 17
10 10 11 12 12 12 13 13 13 13 13 13 15 16 17 17 17 17 16 15 14 13 13 13 15 17 19 19 19 18 18 17 18 19 19 19 20 20 20 19 19 19 19 18 18 19 18 15 13 12 12 11 11 12 14 17 18 18 18 16 14 14 13 13 13 14 15 17 18
10 11 11 12 12 13 13 13 13 14 15 15 16 17 17 17 17 16 15 13 13 14 14 15 16 17 18 18 18 17 17 17 17 18 19 19 19 19 19 18 19 19 19 18 17 17 17 15 14 14 14 13 14 16 17 18 19 20 19 15 14 15 16 16 16 17 17 17 17
12 11 11 11 12 13 13 13 13 13 14 15 16 16 16 16 16 15 14 13 14 15 16 16 16 17 17 16 16 17 17 16 16 17 18 19 19 19 19 19 19 19 19 18 16 14 14 13 15 17 18 17 17 17 18 19 20 20 20 17 17 18 19 18 17 16 16 16 17
12 12 12 12 12 13 13 13 12 13 14 15 15 16 15 15 15 15 15 15 16 16 16 16 16 16 16 15 15 16 16 17 18 18 19 19 20 20 20 19 19 19 18 17 15 13 12 14 16 19 20 20 16 15 16 19 20 21 21 21 20 19 19 20 18 16 14 15 16
12 12 12 12 13 13 13 13 12 12 13 14 15 14 14 14 15 15 15 16 16 15 14 14 15 15 15 15 15 16 16 17 18 19 19 19 19 19 19 19 19 18 18 16 15 14 14 15 18 21 22 21 18 16 17 19 20 21 21 21 21 21 21 21 20 18 16 15 16
12 12 12 12 13 13 13 13 12 12 13 14 14 13 13 13 14 14 14 14 15 14 14 14 14 14 14 15 16 17 17 18 19 19 20 20 19 19 19 18 19 18 17 16 16 16 17 17 19 21 22 22 21 20 20 20 20 20 20 21 21 21 21 22 21 19 17 17 17
12 12 13 13 13 12 12 12 11 12 12 14 13 13 13 12 12 12 13 14 14 14 14 14 13 14 15 16 17 18 18 19 19 20 20 21 20 19 19 19 19 18 17 17 17 17 17 18 20 21 22 22 22 21 21 20 20 20 20 20 20 20 20 21 21 19 18 17 16
12 13 13 13 13 13 12 12 11 11 12 13 13 13 13 12 12 12 12 13 13 13 13 14 14 14 15 16 17 18 18 18 19 19 20 20 20 20 20 19 19 19 19 19 18 18 18 18 19 20 21 22 22 22 21 21 21 20 20 20 20 20 20 20 20 20 19 17 16
13 13 13 13 13 13 13 13 12 12 12 14 14 14 13 12 11 11 12 13 12 13 14 15 15 15 15 16 16 16 17 17 18 18 19 19 20 20 20 20 20 19 19 19 20 20 20 19 19 19 20 21 21 21 22 22 21 20 20 20 20 20 20 19 18 18 17 17 17
13 13 13 13 14 14 14 14 14 14 14 15 15 14 14 13 12 12 12 13 14 15 16 17 16 16 16 17 16 16 15 16 18 18 19 19 20 20 20 20 20 20 19 19 20 20 21 20 20 20 20 20 21 21 21 21 21 21 21 20 20 20 20 19 16 15 14 15 16
13 13 14 14 14 15 15 15 15 15 15 15 14 14 14 15 14 14 14 14 15 16 16 17 16 16 17 18 17 17 16 16 18 19 20 20 19 19 19 20 20 20 19 19 20 20 21 21 20 21 21 20 20 21 21 21 20 20 20 20 20 20 19 18 16 14 13 13 14
13 14 14 14 15 15 15 15 15 15 15 14 15 15 15 16 16 16 16 16 16 16 17 17 17 17 17 18 18 18 17 16 18 19 20 20 20 20 20 20 20 20 19 19 19 20 21 21 20 21 21 21 22 22 22 21 20 20 19 18 19 19 19 17 15 14 13 13 13
13 14 14 14 14 15 15 15 15 15 15 15 16 16 16 16 16 16 17 17 17 17 17 17 17 18 18 18 18 18 17 16 17 18 19 19 20 19 19 18 19 18 18 19 19 19 20 20 20 20 21 21 22 22 22 20 20 20 20 18 18 19 19 17 15 14 14 14 14
13 14 14 14 14 15 15 15 15 15 15 16 16 16 16 16 16 17 17 17 17 17 17 17 18 18 18 18 18 18 18 16 17 18 18 18 18 18 18 17 18 18 19 19 19 19 19 20 20 20 21 21 21 22 22 21 20 20 20 21 21 21 19 17 14 13 13 14 14
14 14 14 14 14 15 15 15 15 15 16 16 16 16 16 16 16 17 17 17 17 17 17 17 17 17 18 18 18 18 18 18 19 19 19 18 18 18 18 17 17 18 18 17 16 17 18 18 19 20 20 20 21 22 22 21 20 19 20 21 22 22 20 17 14 13 12 13 14
14 14 13 12 14 15 15 15 15 16 16 16 16 16 16 16 17 17 17 17 17 17 17 16 16 17 17 18 18 18 19 19 19 20 19 19 18 18 17 16 16 16 16 14 15 17 18 17 17 17 18 19 19 20 20 20 19 19 19 20 21 21 20 17 14 12 12 12 13
14 14 14 14 14 15 15 15 15 16 16 16 16 16 16 17 17 17 17 17 17 18 18 17 17 17 16 16 17 17 18 18 19 19 20 19 19 18 17 15 14 13 13 12 18 22 24 23 20 18 17 17 18 19 19 19 19 19 19 19 20 20 19 17 14 13 12 12 12
14 14 14 15 15 15 15 16 16 16 16 16 16 17 17 17 16 17 17 18 18 18 18 18 17 16 15 15 16 16 17 16 17 18 19 19 19 18 17 15 13 12 12 14 21 25 28 29 28 25 21 18 18 18 18 18 19 19 19 19 19 18 18 16 14 13 12 12 12
14 14 14 15 15 15 16 16 16 16 16 16 17 17 17 17 16 17 17 18 18 18 17 16 16 15 15 14 16 16 17 16 17 18 18 18 18 18 18 16 13 12 12 17 23 27 28 30 31 30 27 21 19 18 17 17 18 19 19 18 17 17 16 16 15 13 12 12 12
14 14 14 15 15 15 16 16 16 16 16 16 17 17 17 17 18 18 18 18 18 17 16 15 14 13 12 12 14 16 17 18 17 17 17 17 17 18 18 16 14 14 16 21 25 28 29 30 31 32 31 27 21 18 18 18 17 17 16 15 16 15 15 14 14 13 13 13 12
14 14 15 15 15 15 16 16 16 16 16 17 17 17 18 18 18 18 18 18 18 17 16 13 12 12 12 14 15 17 18 18 17 16 16 16 17 17 18 17 17 17 20 24 27 28 29 30 31 32 33 32 23 17 15 15 15 14 14 13 14 14 13 11 12 13 13 13 11
14 14 14 15 15 15 16 16 16 16 16 16 17 17 18 18 18 18 19 19 19 17 16 14 13 14 15 16 17 17 17 17 16 16 16 17 18 18 18 18 17 18 20 24 26 28 29 30 31 32 33 34 27 20 16 15 15 14 14 13 15 15 14 11 12 13 14 13 10
14 14 14 15 15 16 16 16 16 17 17 16 17 18 18 18 19 19 19 18 18 17 17 17 17 18 18 18 17 17 17 17 17 16 16 17 18 19 19 19 19 19 20 24 26 27 28 29 30 32 33 35 28 21 17 16 16 15 15 15 16 15 13 10 10 12 14 13 9
14 14 15 15 16 16 16 17 17 17 17 18 18 18 19 19 19 19 18 18 18 18 18 18 18 19 19 19 18 18 18 18 17 17 17 17 18 19 19 19 18 18 20 24 26 27 28 29 30 31 33 35 29 23 19 18 18 17 17 18 18 15 12 8 8 10 13 13 9
14 14 15 16 16 16 17 17 17 17 18 18 18 19 19 19 19 18 18 17 17 17 18 18 18 18 18 19 19 19 18 18 17 18 18 19 19 20 20 18 16 17 20 24 26 27 28 28 29 30 32 34 28 22 19 19 17 17 17 18 16 13 10 8 8 10 11 12 10
14 14 15 16 16 17 17 17 17 17 18 18 18 19 19 19 19 19 18 17 16 16 17 17 17 17 18 18 18 18 18 17 17 18 19 19 20 20 19 17 13 15 20 24 26 27 27 27 28 30 31 32 25 20 19 20 18 17 18 18 16 12 9 7 9 10 11 11 10
14 15 15 16 16 17 17 17 18 18 18 18 19 19 19 19 19 19 18 17 17 17 17 17 17 17 17 17 18 18 18 18 18 18 19 19 19 20 20 18 16 18 22 25 26 26 27 27 28 30 30 28 21 17 17 19 18 18 18 19 18 15 11 9 9 9 10 10 10
14 15 16 16 17 17 17 18 18 18 18 19 19 19 19 19 18 18 18 18 18 17 17 17 17 17 17 18 17 17 18 18 19 19 19 19 19 19 20 19 19 20 23 25 25 26 26 27 28 29 28 23 17 16 16 16 15 15 16 17 17 17 15 12 10 9 9 9 10
14 15 16 16 17 17 17 18 18 18 19 19 19 19 19 19 18 18 17 17 17 17 18 17 17 18 18 18 17 17 18 18 19 19 19 19 19 19 19 19 19 20 21 23 25 25 26 26 27 27 25 19 16 15 15 15 13 13 13 14 15 17 17 14 12 10 10 10 11
14 15 16 16 17 17 17 18 18 18 19 19 19 19 18 18 17 17 16 16 16 17 18 18 18 18 18 18 18 18 19 19 19 19 19 19 19 18 19 20 19 19 19 21 24 25 26 26 27 27 24 18 16 15 15 13 12 11 11 11 13 15 16 14 12 11 12 12 12
14 15 15 16 17 17 18 18 18 18 19 19 19 18 18 18 16 16 16 15 16 17 17 18 18 18 18 19 18 18 19 19 19 19 19 19 18 19 19 19 19 18 19 21 23 25 25 25 26 26 25 19 16 14 13 12 12 11 10 10 11 13 14 13 12 12 12 13 14
14 15 15 16 17 17 17 18 18 18 18 18 18 18 18 18 17 16 16 15 16 16 17 17 18 19 18 18 18 18 19 19 19 19 19 19 19 19 20 19 18 18 19 20 22 24 24 25 26 26 24 18 15 13 12 12 11 10 10 10 10 11 12 13 12 12 12 12 12
14 15 15 16 16 17 17 18 18 18 17 17 18 18 17 17 17 16 16 15 16 16 16 16 18 19 19 18 17 18 19 20 19 19 19 19 19 19 18 17 18 18 18 19 21 22 24 25 25 26 24 18 15 13 12 11 10 10 10 11 11 11 11 12 12 12 11 11 10
Wind_Direction
286 287 287 288 287 286 286 285 285 286 288 290 292 294 295 295 295 295 295 295 295 296 296 296 297 298 299 301 303 304 305 305 304 303 303 303 303 303 304 304 304 305 305 306 307 305 302 298 292 286 281 277 276 277 277 276 277 277 276 275 275 277 278 280 274 269 265 264 263
287 288 288 286 283 282 281 283 285 286 288 290 292 293 294 293 293 293 293 293 293 294 295 295 296 298 299 301 303 304 304 303 304 304 304 304 304 304 304 303 304 304 306 307 307 305 300 297 292 288 284 280 279 279 279 279 278 277 275 274 274 275 278 279 276 272 268 265 260
286 286 285 284 283 284 286 288 289 291 291 291 292 292 292 291 290 290 291 292 293 293 293 294 296 298 299 301 301 302 301 302 304 305 305 305 304 304 304 303 303 304 305 307 307 304 300 297 293 289 285 283 282 281 281 282 281 279 277 276 276 276 276 276 275 273 270 265 260
283 285 286 287 289 291 292 293 293 293 293 293 292 290 288 287 286 287 289 291 292 291 292 294 296 298 299 299 299 299 300 302 304 306 306 306 305 304 303 302 302 303 304 306 306 303 300 297 293 289 285 284 283 283 283 284 284 282 280 279 279 278 277 276 272 267 263 263 260
287 288 290 291 293 294 293 292 292 292 293 293 291 289 286 285 284 285 287 290 291 292 294 297 297 297 297 297 298 300 302 303 305 306 306 306 304 303 302 301 302 303 304 306 305 303 301 298 292 287 284 284 284 284 285 287 287 285 283 281 278 276 276 275 273 270 266 265 259
288 289 290 290 292 292 291 290 290 291 291 290 287 285 285 284 286 288 291 292 294 295 297 298 297 296 296 297 300 302 303 305 305 306 306 305 303 302 301 301 302 302 303 304 304 303 300 298 291 286 283 284 285 286 288 289 287 286 284 281 278 276 274 273 273 272 270 265 256
285 287 288 289 289 289 288 288 288 288 287 285 284 284 284 286 288 290 292 294 295 297 298 299 298 298 298 299 301 302 303 304 304 304 304 304 303 302 301 301 301 301 302 303 303 303 300 297 291 287 286 288 289 290 290 290 288 286 284 282 282 281 278 276 273 271 269 265 256
282 284 286 287 287 287 286 286 287 286 286 284 284 284 285 287 288 290 292 293 295 297 300 299 298 298 298 299 300 301 302 302 302 303 303 303 302 302 301 300 300 300 301 302 302 302 300 297 292 289 289 290 290 291 291 290 287 285 282 281 281 280 279 278 274 271 269 268 257
283 283 284 285 285 286 287 287 287 287 286 285 284 285 286 287 289 291 292 294 297 299 299 298 297 297 297 298 298 299 300 301 301 301 302 302 301 300 299 299 300 300 301 302 302 301 299 296 292 290 290 291 291 292 292 291 287 284 281 279 277 275 274 274 274 273 273 271 261
285 284 285 285 286 288 289 289 288 287 285 285 284 285 286 288 290 292 294 297 298 298 298 296 297 297 297 297 297 298 298 299 299 300 301 301 300 299 298 298 299 300 302 303 302 300 298 295 293 292 292 291 292 292 291 290 288 285 283 279 276 274 273 272 273 274 275 274 264
284 284 285 285 287 289 290 290 288 287 285 284 285 286 288 290 292 294 296 298 297 297 297 298 298 297 296 296 295 296 297 298 299 300 300 300 300 299 298 298 299 300 301 302 301 299 297 296 295 295 295 294 293 292 291 291 290 288 285 282 278 275 272 269 269 270 272 273 266
283 284 284 285 286 287 288 288 286 285 284 284 285 287 288 290 293 295 297 297 297 297 298 299 298 297 295 294 294 294 296 297 299 299 300 300 299 299 298 297 298 299 301 301 300 298 297 297 299 299 298 297 295 293 293 294 293 291 288 284 280 275 270 267 265 265 266 270 268
284 285 285 285 286 286 286 286 285 283 283 284 286 287 289 291 294 296 297 297 298 299 299 298 296 295 294 293 293 294 296 297 299 299 300 300 299 299 298 298 298 299 300 301 300 299 299 299 300 300 300 299 297 296 296 296 295 293 290 286 281 275 270 266 264 262 261 264 267
285 285 285 285 286 286 286 285 284 284 284 285 287 289 291 293 296 297 297 297 298 298 297 297 296 295 294 294 293 294 295 296 298 299 300 300 300 300 299 298 298 299 300 301 301 302 302 302 302 301 301 300 300 299 298 297 295 293 291 288 282 276 270 265 262 259 258 259 262
284 284 284 285 285 285 285 284 284 284 286 288 291 293 295 296 297 296 296 296 296 296 297 298 297 295 294 294 293 294 295 296 298 299 300 301 301 301 300 299 299 300 301 302 304 305 305 304 303 302 301 301 301 300 299 297 295 293 292 290 287 280 273 265 260 256 254 253 255
284 284 284 285 285 284 283 284 284 286 289 291 294 296 296 296 296 295 295 295 295 295 296 296 295 295 295 294 294 295 296 297 298 300 301 301 302 302 301 301 301 301 302 304 305 307 307 306 304 302 301 301 300 299 298 296 294 292 292 292 292 289 283 273 262 254 249 247 248
284 285 285 285 284 284 284 284 285 288 291 293 295 295 295 295 295 294 294 294 294 294 294 294 294 294 295 296 296 296 297 297 299 300 301 301 302 302 302 301 301 302 303 305 307 308 309 308 305 303 301 300 299 298 297 295 293 292 291 291 292 292 289 282 268 256 247 243 242
285 285 286 286 285 285 285 286 287 288 290 292 293 294 294 295 294 294 293 292 292 292 293 293 293 294 295 296 296 296 297 297 298 299 300 301 302 302 301 301 301 302 303 305 307 309 309 309 307 305 302 299 298 296 295 294 293 291 291 290 290 289 287 283 272 258 246 239 238
285 286 286 286 286 287 288 288 289 290 291 291 292 293 293 293 293 293 292 292 292 292 293 294 294 294 294 295 295 296 296 296 297 298 299 301 301 301 301 301 301 302 303 304 306 308 309 310 309 307 303 300 298 296 294 293 292 291 291 290 290 289 287 282 272 259 246 240 238
285 285 286 286 287 288 289 290 291 291 292 292 292 292 292 292 293 293 293 293 293 294 294 294 294 294 295 295 296 296 296 296 298 299 299 300 301 300 300 301 301 302 302 303 305 307 309 311 310 307 304 300 298 297 296 295 294 294 293 293 293 292 289 284 273 260 248 241 241
284 285 286 287 288 289 290 291 292 292 292 292 292 292 292 292 293 293 293 294 295 295 295 294 294 295 295 296 297 297 298 297 298 298 299 299 299 300 300 300 300 300 301 301 303 306 310 312 310 307 304 300 299 298 298 298 298 299 300 300 299 296 292 286 275 262 250 243 241
285 286 288 289 289 290 290 291 292 292 292 291 291 292 292 293 293 293 294 294 295 295 294 294 294 295 296 297 297 298 298 297 297 297 297 298 298 299 299 299 299 298 298 299 302 306 310 311 309 306 303 301 300 300 300 301 302 304 305 305 303 300 296 286 274 262 252 245 242
287 288 289 289 289 290 290 291 291 291 291 291 292 292 293 293 293 293 294 294 294 294 294 294 294 295 295 296 296 296 297 296 296 297 297 297 298 298 299 299 298 297 297 297 301 306 309 310 309 307 305 303 302 302 302 303 305 306 307 307 305 303 298 287 272 259 251 247 243
287 288 289 289 289 290 290 291 291 291 291 291 292 293 293 294 294 294 294 294 294 294 294 293 294 294 295 295 295 295 296 296 297 298 299 299 299 299 299 299 298 297 296 296 300 305 308 310 310 308 307 305 304 304 304 306 307 307 307 306 306 305 301 292 273 258 248 246 243
288 288 289 289 289 290 290 291 291 291 292 292 293 294 294 294 294 294 294 294 294 294 294 293 293 294 294 294 294 295 296 297 299 300 301 300 300 300 299 299 297 297 296 294 298 303 308 311 312 311 309 308 307 307 307 307 308 307 307 305 305 304 303 297 280 261 246 242 240
288 289 289 289 290 291 291 291 291 292 292 293 294 294 294 294 294 294 294 294 294 294 295 295 295 294 294 295 296 298 299 300 301 302 302 301 300 300 300 300 299 296 293 293 299 305 310 313 314 314 313 312 311 310 309 307 307 306 305 304 302 302 302 301 289 270 250 238 236
289 289 290 290 291 291 291 292 292 293 293 293 294 294 294 295 295 295 295 294 295 295 295 295 295 295 296 297 299 301 302 303 303 302 302 301 300 301 301 301 299 296 294 296 301 307 311 314 315 317 318 317 314 311 309 306 305 304 303 302 300 298 298 300 296 283 265 246 238
289 290 291 292 292 292 292 293 293 293 293 294 294 295 295 295 295 295 295 295 296 296 296 296 297 298 299 300 302 303 303 303 304 304 303 302 301 301 301 301 301 299 299 301 305 309 312 315 317 319 320 320 316 311 306 303 302 302 301 300 297 295 294 296 297 292 280 259 245
290 291 292 293 293 293 293 293 294 294 294 295 296 296 296 296 296 296 296 296 297 297 297 298 300 300 301 302 303 303 304 304 305 305 305 303 302 301 301 301 301 302 303 305 307 309 312 315 318 320 321 321 318 312 306 304 303 302 301 299 296 293 291 292 297 297 290 273 254
291 292 293 293 293 293 294 294 295 295 296 296 297 297 298 297 297 297 297 297 298 299 299 300 300 300 301 302 302 303 305 307 308 308 306 304 303 302 301 303 304 304 305 306 308 310 312 316 319 321 321 321 318 313 308 306 306 304 302 298 294 291 289 289 295 298 296 286 266
292 292 293 293 293 294 294 295 296 297 297 298 298 298 298 298 298 298 298 299 299 300 300 299 299 299 300 301 302 304 306 308 309 308 307 304 303 303 303 304 305 305 305 307 308 310 313 317 321 321 321 321 319 317 313 311 310 307 304 300 295 290 287 285 291 296 296 293 278
292 292 293 294 295 295 296 297 298 298 299 299 299 299 299 298 299 299 300 300 300 300 299 299 299 300 300 301 303 305 307 308 309 308 307 305 304 305 305 306 307 307 306 307 308 310 314 319 321 321 321 321 320 317 315 313 312 309 306 303 297 290 283 278 284 292 297 302 298
292 293 294 295 296 297 298 298 299 299 300 300 299 299 299 299 299 300 300 300 299 299 299 299 300 300 301 302 304 306 307 308 308 307 306 306 306 306 307 307 306 306 306 306 308 311 315 319 321 321 320 321 320 318 316 315 313 311 310 310 307 299 285 273 279 287 296 305 309
294 295 296 296 297 298 299 299 300 300 300 300 299 299 299 300 300 300 300 300 300 299 299 299 299 300 300 301 303 305 307 307 307 307 307 307 307 307 308 308 305 305 306 307 309 312 315 319 320 320 320 321 319 317 315 315 313 313 314 318 321 317 302 276 276 282 290 299 303
295 296 297 297 298 299 299 300 300 300 300 300 299 299 300 300 301 301 301 301 301 300 299 298 298 298 299 300 302 304 305 306 306 306 307 307 308 308 307 307 305 305 307 308 310 312 315 317 319 320 321 321 318 315 314 313 312 313 316 321 327 327 318 293 280 279 283 289 292
296 297 297 298 298 299 300 300 300 300 300 300 300 300 301 301 301 301 301 302 301 300 299 299 299 299 299 301 302 303 304 305 306 306 307 307 308 307 307 306 306 306 308 309 310 311 313 316 319 321 321 320 317 314 312 311 309 311 316 323 328 330 327 315 299 288 283 283 284
297 297 298 298 298 299 299 300 300 300 300 300 300 301 301 301 301 301 302 302 301 300 299 299 300 300 301 302 302 303 304 305 305 306 307 307 307 307 306 306 306 307 307 308 309 310 312 315 319 321 321 319 316 313 311 308 307 310 317 325 328 330 329 324 315 304 295 287 282
296 297 297 297 298 298 299 299 299 299 300 300 301 301 301 301 301 301 301 302 301 300 300 300 300 301 301 302 302 302 303 304 305 305 306 306 306 306 306 305 306 306 306 306 307 308 310 314 318 320 321 318 316 313 310 307 307 311 319 328 329 329 329 325 321 314 305 295 286
296 296 296 296 296 297 298 298 299 299 300 300 301 301 301 301 301 301 301 300 299 299 299 300 301 301 302 302 302 302 303 303 303 304 305 305 305 305 305 304 304 304 304 305 306 307 310 313 316 319 320 318 315 312 309 306 308 313 322 330 329 328 327 324 321 315 308 301 294
294 294 294 295 295 296 297 298 298 299 300 300 300 300 300 301 300 300 299 299 298 299 299 300 301 301 302 303 302 302 302 302 303 304 304 305 304 304 304 303 302 302 302 303 305 307 310 313 315 319 321 318 316 312 308 306 309 317 326 334 332 329 325 322 320 315 311 307 307
293 293 293 294 295 296 297 297 298 299 299 299 299 300 300 300 299 299 299 299 300 300 300 300 300 301 302 303 302 302 302 302 303 303 304 304 304 303 303 302 301 301 301 303 306 308 311 314 316 319 321 320 317 313 309 306 311 322 332 337 335 329 324 320 318 315 314 314 318